TimeEDT,TemperatureF,Dew PointF,Humidity,Sea Level PressureIn,VisibilityMPH,Wind Direction,Wind SpeedMPH,Gust SpeedMPH,PrecipitationIn,Events,Conditions,WindDirDegrees,DateUTC
12:46 AM,77.0,71.1,82,29.82,10.0,SW,19.6,27.6,N/A,,Mostly Cloudy,220,2013-06-30 04:46:00
12:54 AM,77.0,70.0,79,29.81,10.0,SSW,11.5,27.6,N/A,,Partly Cloudy,210,2013-06-30 04:54:00
1:54 AM,77.0,71.1,82,29.81,10.0,SSW,13.8,19.6,N/A,,Mostly Cloudy,200,2013-06-30 05:54:00
2:22 AM,75.9,71.1,85,29.82,10.0,SW,10.4,19.6,0.00,Rain,Light Rain,220,2013-06-30 06:22:00
2:54 AM,75.0,71.1,87,29.80,9.0,SSW,6.9,-,0.00,Rain,Light Rain,200,2013-06-30 06:54:00
3:54 AM,75.0,72.0,90,29.79,9.0,South,4.6,-,0.00,Rain,Light Rain,190,2013-06-30 07:54:00
4:25 AM,75.0,72.0,90,29.79,7.0,South,10.4,-,N/A,Rain,Light Rain,190,2013-06-30 08:25:00
5:08 AM,75.0,72.0,90,29.80,10.0,SSW,12.7,-,N/A,,Mostly Cloudy,200,2013-06-30 09:08:00
5:37 AM,74.1,71.1,90,29.82,10.0,SSW,11.5,19.6,0.01,,Mostly Cloudy,200,2013-06-30 09:37:00
6:00 AM,75.0,71.1,87,29.82,5.0,SSW,6.9,18.4,0.00,Rain-Thunderstorm,Thunderstorms and Rain,210,2013-06-30 10:00:00
6:16 AM,73.9,71.1,91,29.83,10.0,SSW,10.4,-,0.23,,Mostly Cloudy,200,2013-06-30 10:16:00
6:54 AM,73.9,70.0,87,29.84,10.0,WSW,19.6,26.5,0.28,,Mostly Cloudy,240,2013-06-30 10:54:00
7:15 AM,73.0,71.1,93,29.85,3.0,SW,13.8,-,0.06,Thunderstorm,Overcast,220,2013-06-30 11:15:00
7:54 AM,73.0,71.1,93,29.84,10.0,North,-9999.0,-,0.12,Thunderstorm,Thunderstorm,0,2013-06-30 11:54:00
8:15 AM,73.9,71.1,91,29.86,10.0,SSW,8.1,-,0.00,,Unknown,210,2013-06-30 12:15:00
8:55 AM,75.0,72.0,90,29.85,-9999.0,SSW,6.9,-,0.01,Rain,Light Rain,210,2013-06-30 12:55:00
9:54 AM,75.9,73.0,91,29.86,10.0,SW,5.8,-,0.01,,Overcast,220,2013-06-30 13:54:00
10:01 AM,75.9,73.0,91,29.87,1.8,SW,4.6,-,0.04,Rain,Rain,230,2013-06-30 14:01:00
10:04 AM,75.9,73.0,91,29.87,4.0,North,-9999.0,-,0.04,Rain,Heavy Rain,0,2013-06-30 14:04:00
10:49 AM,75.2,73.4,94,29.88,1.8,South,8.1,-,0.11,Rain,Rain,190,2013-06-30 14:49:00
10:56 AM,75.0,72.0,90,29.88,0.8,SSW,9.2,-,0.05,Rain,Heavy Rain,200,2013-06-30 14:56:00
11:04 AM,73.9,72.0,93,29.88,2.0,South,11.5,-,0.13,Rain,Heavy Rain,190,2013-06-30 15:04:00
11:22 AM,73.0,71.1,93,29.90,2.0,North,-9999.0,-,0.33,Rain,Heavy Rain,0,2013-06-30 15:22:00
11:31 AM,73.0,70.0,90,29.90,2.0,North,-9999.0,-,0.36,Rain-Thunderstorm,Thunderstorms and Rain,0,2013-06-30 15:31:00
11:47 AM,73.0,71.1,93,29.89,2.0,SSW,6.9,-,0.38,Rain,Light Rain,200,2013-06-30 15:47:00
11:54 AM,73.9,71.1,91,29.88,2.0,South,6.9,-,0.38,Rain,Light Rain,190,2013-06-30 15:54:00
12:54 PM,75.0,71.1,87,29.87,10.0,SSW,6.9,-,0.01,,Scattered Clouds,210,2013-06-30 16:54:00
1:27 PM,75.9,72.0,87,29.87,10.0,South,6.9,-,0.00,,Mostly Cloudy,180,2013-06-30 17:27:00
1:54 PM,78.1,73.0,84,29.86,9.0,South,8.1,-,0.00,Rain,Light Rain,180,2013-06-30 17:54:00
2:54 PM,78.1,73.9,87,29.87,9.0,South,9.2,-,0.00,Rain,Light Rain,190,2013-06-30 18:54:00
3:54 PM,80.1,73.0,79,29.86,10.0,South,10.4,21.9,0.00,,Overcast,190,2013-06-30 19:54:00
4:54 PM,80.1,73.0,79,29.84,10.0,South,12.7,19.6,0.00,,Overcast,170,2013-06-30 20:54:00
5:54 PM,81.0,73.0,77,29.84,10.0,SSW,9.2,-,0.00,,Overcast,200,2013-06-30 21:54:00
6:54 PM,80.1,72.0,76,29.88,10.0,SSW,12.7,-,N/A,,Partly Cloudy,210,2013-06-30 22:54:00
7:54 PM,79.0,73.9,84,29.89,9.0,South,12.7,-,N/A,,Overcast,190,2013-06-30 23:54:00
8:54 PM,78.1,73.0,84,29.91,10.0,South,8.1,-,N/A,,Partly Cloudy,190,2013-07-01 00:54:00
9:54 PM,77.0,73.0,88,29.92,10.0,South,8.1,-,N/A,,Partly Cloudy,180,2013-07-01 01:54:00
10:54 PM,78.1,73.0,84,29.93,10.0,South,8.1,-,N/A,,Mostly Cloudy,180,2013-07-01 02:54:00
11:54 PM,78.1,73.9,87,29.93,10.0,South,6.9,18.4,N/A,,Mostly Cloudy,180,2013-07-01 03:54:00